Observations for Trim Market St
| Time | AQI | Temp °C | Hum % | Pres Pa | CO μg/m³ | H₂S μg/m³ | NO μg/m³ | NO₂ μg/m³ | O₃ μg/m³ | SO₂ μg/m³ | PM1 μg/m³ | PM2.5 μg/m³ | PM10 μg/m³ |
|---|---|---|---|---|---|---|---|---|---|---|---|---|---|
| Sunday 16 August 2026 | |||||||||||||
| 10:55 | 2 | 23 | 49 | 55,934 | 0 | 0 | 1.24 | 3.53 | 55.17 | 0 | 0.71 | 4.03 | 6.03 |
| 10:54 | 2 | 23 | 49 | 55,811 | 0 | 0 | 1.36 | 4.16 | 61.81 | 0 | 0.71 | 3.51 | 3.78 |
| 10:53 | 2 | 23.1 | 49 | 55,820 | 0 | 0 | 1.47 | 4.11 | 59.81 | 0 | 0.71 | 3 | 3.03 |
| 10:52 | 2 | 23.1 | 49 | 55,904 | 0 | 0 | 1.49 | 4.04 | 57.43 | 0 | 0.71 | 3.51 | 3.78 |
| 10:50 | 2 | 23.1 | 50 | 55,962 | 0.02 | 0 | 1.42 | 4.82 | 59.12 | 0 | 0.71 | 2.47 | 3.04 |
| 10:49 | 2 | 23.1 | 49 | 56,000 | 0.08 | 0 | 1.35 | 5.14 | 56.52 | 0 | 0.71 | 3.51 | 4.53 |
| 10:47 | 2 | 23.1 | 50 | 56,225 | 0.06 | 0 | 1.42 | 2.47 | 49.16 | 0 | 1.43 | 3.5 | 4.54 |
| 10:45 | 2 | 23.2 | 50 | 56,002 | 0.01 | 0 | 1.25 | 1.63 | 33.58 | 0 | 0.71 | 2.97 | 3.05 |
| 10:35 | 2 | 23.3 | 51 | 55,779 | 0.08 | 0 | 1.37 | 3.38 | 31.35 | 0 | 0 | 2.41 | 2.66 |
| 10:34 | 2 | 23.3 | 51 | 55,790 | 0.14 | 0 | 1.54 | 5.1 | 48.17 | 0 | 0 | 2.41 | 2.65 |
| 10:33 | 2 | 23.3 | 51 | 55,807 | 0.19 | 0 | 1.43 | 4.72 | 39.02 | 0 | 0.71 | 2.92 | 3.09 |
| 10:32 | 2 | 23.3 | 51 | 55,810 | 0.19 | 0 | 1.47 | 3.3 | 28.82 | 0 | 0.71 | 2.4 | 3.83 |
| 10:31 | 2 | 23.4 | 52 | 55,875 | 0.4 | 0 | 1.25 | 4.14 | 23.44 | 0 | 0.71 | 2.9 | 3.11 |
| 10:30 | 2 | 23.3 | 52 | 55,963 | 0.28 | 0 | 1.39 | 3.71 | 29.76 | 0 | 0 | 2.38 | 2.62 |
| 10:29 | 2 | 23.3 | 52 | 56,073 | 0.18 | 0 | 1.29 | 4.97 | 27.9 | 0 | 0.71 | 3.39 | 3.86 |
| 10:28 | 2 | 23.3 | 52 | 56,169 | 0.21 | 0 | 1.47 | 3.48 | 23.59 | 0 | 0.71 | 2.87 | 3.13 |
| 10:27 | 2 | 23.3 | 52 | 56,353 | 0.24 | 0 | 1.58 | 3.25 | 18.5 | 0 | 0.71 | 3.37 | 3.87 |
| 10:25 | 2 | 23.3 | 53 | 56,706 | 0.25 | 0 | 2 | 5.85 | 24.85 | 0 | 0 | 2.82 | 3.17 |
| 10:19 | 2 | 22.9 | 55 | 57,322 | 0.24 | 0 | 1.39 | 4.91 | 22.58 | 0 | 0 | 3.26 | 3.94 |
| 10:15 | 2 | 22.4 | 56 | 57,695 | 0.19 | 0 | 1.99 | 6.04 | 37.21 | 0 | 0.71 | 3.21 | 3.98 |